Time,TemperatureF,DewpointF,PressureIn,WindDirection,WindDirectionDegrees,WindSpeedMPH,WindSpeedGustMPH,Humidity,HourlyPrecipIn,Conditions,Clouds,dailyrainin,SoftwareType,DateUTC
2013-01-27 09:30:00,40.2,34.8,30.00,SSW,202,2.0,7.0,81,0.00,,FEW,0.01,VWS V14.01,2013-01-27 17:30:00,
2013-01-27 10:05:00,41.1,34.5,30.00,SSW,202,4.0,4.0,77,0.00,,FEW,0.01,VWS V14.01,2013-01-27 18:05:00,
2013-01-27 10:10:00,41.2,34.5,30.00,SE,132,7.0,9.0,77,0.00,,FEW,0.01,VWS V14.01,2013-01-27 18:10:00,
2013-01-27 10:15:00,41.2,33.9,30.00,SSE,149,2.0,9.0,75,0.00,,FEW,0.01,VWS V14.01,2013-01-27 18:15:00,
2013-01-27 10:20:00,41.2,34.2,30.00,South,188,7.0,13.0,76,0.00,,FEW,0.01,VWS V14.01,2013-01-27 18:20:00,
2013-01-27 10:25:00,41.2,34.2,30.00,South,183,2.0,13.0,76,0.00,,FEW,0.01,VWS V14.01,2013-01-27 18:25:00,
2013-01-27 10:30:00,41.3,34.3,30.01,SSW,203,3.0,13.0,76,0.00,,FEW,0.01,VWS V14.01,2013-01-27 18:30:00,
2013-01-27 10:35:00,41.3,34.3,30.01,SE,143,3.0,4.0,76,0.00,,FEW,0.01,VWS V14.01,2013-01-27 18:35:00,
2013-01-27 10:40:00,41.3,34.7,30.01,SSE,156,2.0,5.0,77,0.00,,FEW,0.01,VWS V14.01,2013-01-27 18:40:00,
2013-01-27 10:45:00,41.3,34.3,30.00,South,174,2.0,9.0,76,0.00,,FEW,0.01,VWS V14.01,2013-01-27 18:45:00,
2013-01-27 10:50:00,41.3,34.3,30.00,SSW,197,4.0,10.0,76,0.00,,FEW,0.01,VWS V14.01,2013-01-27 18:50:00,
2013-01-27 10:55:00,41.3,34.3,30.00,SSW,193,7.0,10.0,76,0.00,,FEW,0.01,VWS V14.01,2013-01-27 18:55:00,
2013-01-27 11:00:00,41.5,34.5,30.00,SE,129,4.0,4.0,76,0.00,,FEW,0.01,VWS V14.01,2013-01-27 19:00:00,
2013-01-27 11:05:00,41.5,34.8,30.00,South,181,2.0,5.0,77,0.00,,FEW,0.01,VWS V14.01,2013-01-27 19:05:00,
2013-01-27 11:10:00,41.5,34.8,30.00,SE,138,2.0,7.0,77,0.00,,FEW,0.01,VWS V14.01,2013-01-27 19:10:00,
2013-01-27 11:15:00,41.5,34.2,30.00,SSW,195,6.0,10.0,75,0.00,,FEW,0.01,VWS V14.01,2013-01-27 19:15:00,
2013-01-27 11:20:00,41.5,34.5,30.00,SSW,192,2.0,10.0,76,0.00,,FEW,0.01,VWS V14.01,2013-01-27 19:20:00,
2013-01-27 11:25:00,41.3,34.7,30.00,South,179,4.0,10.0,77,0.00,,FEW,0.01,VWS V14.01,2013-01-27 19:25:00,
2013-01-27 11:30:00,41.3,34.7,30.00,South,191,3.0,3.0,77,0.00,,FEW,0.01,VWS V14.01,2013-01-27 19:30:00,
2013-01-27 11:35:00,41.2,34.5,30.00,SSW,198,4.0,6.0,77,0.00,,FEW,0.01,VWS V14.01,2013-01-27 19:35:00,
2013-01-27 11:40:00,40.9,34.6,30.00,South,180,4.0,6.0,78,0.01,,FEW,0.02,VWS V14.01,2013-01-27 19:40:00,
2013-01-27 11:45:00,40.6,34.6,29.99,SE,139,2.0,6.0,79,0.01,,FEW,0.02,VWS V14.01,2013-01-27 19:45:00,
2013-01-27 11:50:00,40.5,35.1,29.99,SE,145,4.0,6.0,81,0.01,,FEW,0.02,VWS V14.01,2013-01-27 19:50:00,
2013-01-27 11:56:00,40.3,34.9,29.99,SSW,197,2.0,6.0,81,0.01,,FEW,0.02,VWS V14.01,2013-01-27 19:56:00,
2013-01-27 12:01:00,40.3,34.9,29.99,South,178,2.0,4.0,81,0.01,,FEW,0.02,VWS V14.01,2013-01-27 20:01:00,
2013-01-27 12:06:00,40.3,35.2,29.99,SSW,203,3.0,4.0,82,0.01,,FEW,0.02,VWS V14.01,2013-01-27 20:06:00,
2013-01-27 12:11:00,40.2,35.5,29.99,ESE,123,1.0,4.0,83,0.02,,FEW,0.03,VWS V14.01,2013-01-27 20:11:00,
2013-01-27 12:16:00,40.2,35.5,29.98,SSW,192,3.0,4.0,83,0.02,,FEW,0.03,VWS V14.01,2013-01-27 20:16:00,
2013-01-27 12:21:00,40.1,35.7,29.98,SSW,201,5.0,6.0,84,0.02,,FEW,0.03,VWS V14.01,2013-01-27 20:21:00,
2013-01-27 12:26:00,40.1,35.7,29.98,SSW,199,2.0,6.0,84,0.02,,FEW,0.03,VWS V14.01,2013-01-27 20:26:00,
2013-01-27 12:31:00,39.9,35.8,29.98,South,188,1.0,2.0,85,0.03,,FEW,0.04,VWS V14.01,2013-01-27 20:31:00,
2013-01-27 12:36:00,39.8,35.7,29.98,SW,218,1.0,3.0,85,0.03,,FEW,0.04,VWS V14.01,2013-01-27 20:36:00,
2013-01-27 12:41:00,39.8,36.0,29.98,SSW,209,2.0,3.0,86,0.03,,FEW,0.04,VWS V14.01,2013-01-27 20:41:00,
2013-01-27 12:46:00,39.8,36.2,29.97,South,170,1.0,3.0,87,0.03,,FEW,0.04,VWS V14.01,2013-01-27 20:46:00,
2013-01-27 12:51:00,39.6,36.1,29.97,South,187,2.0,5.0,87,0.03,,FEW,0.04,VWS V14.01,2013-01-27 20:51:00,
2013-01-27 12:56:00,39.5,36.0,29.97,SSW,193,3.0,5.0,87,0.04,,FEW,0.05,VWS V14.01,2013-01-27 20:56:00,
2013-01-27 13:01:00,39.5,35.7,29.96,South,188,1.0,2.0,86,0.03,,FEW,0.05,VWS V14.01,2013-01-27 21:01:00,
2013-01-27 13:06:00,39.3,35.5,29.96,South,174,2.0,5.0,86,0.03,,FEW,0.05,VWS V14.01,2013-01-27 21:06:00,
2013-01-27 13:11:00,39.3,35.5,29.96,South,185,0.0,5.0,86,0.03,,FEW,0.05,VWS V14.01,2013-01-27 21:11:00,
2013-01-27 13:16:00,39.3,35.8,29.96,SSW,197,4.0,5.0,87,0.03,,FEW,0.05,VWS V14.01,2013-01-27 21:16:00,
2013-01-27 13:21:00,39.2,35.7,29.96,South,189,3.0,6.0,87,0.04,,FEW,0.06,VWS V14.01,2013-01-27 21:21:00,
2013-01-27 13:26:00,39.1,35.6,29.96,South,170,4.0,8.0,87,0.04,,FEW,0.06,VWS V14.01,2013-01-27 21:26:00,
2013-01-27 13:31:00,39.1,35.6,29.95,East,99,3.0,5.0,87,0.04,,FEW,0.07,VWS V14.01,2013-01-27 21:31:00,
2013-01-27 13:36:00,38.9,35.4,29.95,ESE,118,2.0,5.0,87,0.04,,FEW,0.07,VWS V14.01,2013-01-27 21:36:00,
2013-01-27 13:41:00,38.9,35.7,29.95,South,174,1.0,5.0,88,0.04,,FEW,0.07,VWS V14.01,2013-01-27 21:41:00,
2013-01-27 13:46:00,38.8,35.6,29.95,SSW,192,3.0,5.0,88,0.05,,FEW,0.08,VWS V14.01,2013-01-27 21:46:00,
2013-01-27 13:51:00,38.8,35.6,29.95,SSW,196,5.0,5.0,88,0.05,,FEW,0.08,VWS V14.01,2013-01-27 21:51:00,
2013-01-27 13:56:00,38.8,35.8,29.95,SSW,199,2.0,5.0,89,0.06,,FEW,0.09,VWS V14.01,2013-01-27 21:56:00,
2013-01-27 14:01:00,38.8,35.8,29.95,SSW,199,2.0,5.0,89,0.04,,FEW,0.09,VWS V14.01,2013-01-27 22:01:00,
2013-01-27 14:06:00,38.8,35.8,29.95,South,183,2.0,5.0,89,0.04,,FEW,0.09,VWS V14.01,2013-01-27 22:06:00,
2013-01-27 14:11:00,38.8,35.8,29.95,SSW,194,4.0,7.0,89,0.04,,FEW,0.09,VWS V14.01,2013-01-27 22:11:00,
2013-01-27 14:16:00,38.8,35.8,29.95,South,183,3.0,7.0,89,0.05,,FEW,0.10,VWS V14.01,2013-01-27 22:16:00,
2013-01-27 14:21:00,38.6,35.6,29.95,South,185,3.0,7.0,89,0.05,,FEW,0.10,VWS V14.01,2013-01-27 22:21:00,
2013-01-27 14:26:00,38.5,35.5,29.95,SSW,194,2.0,7.0,89,0.06,,FEW,0.11,VWS V14.01,2013-01-27 22:26:00,
2013-01-27 14:32:00,38.5,35.5,29.95,South,178,1.0,4.0,89,0.04,,FEW,0.11,VWS V14.01,2013-01-27 22:32:00,
2013-01-27 14:37:00,38.5,35.5,29.95,SSW,193,0.0,4.0,89,0.04,,FEW,0.11,VWS V14.01,2013-01-27 22:37:00,
2013-01-27 14:42:00,38.5,35.5,29.95,SSW,203,4.0,9.0,89,0.05,,FEW,0.12,VWS V14.01,2013-01-27 22:42:00,
2013-01-27 14:47:00,38.5,35.5,29.95,South,189,3.0,9.0,89,0.05,,FEW,0.12,VWS V14.01,2013-01-27 22:47:00,
2013-01-27 14:52:00,38.3,35.3,29.95,SSW,209,2.0,9.0,89,0.05,,FEW,0.12,VWS V14.01,2013-01-27 22:52:00,
2013-01-27 14:57:00,38.3,35.3,29.95,SSE,155,1.0,9.0,89,0.06,,FEW,0.13,VWS V14.01,2013-01-27 22:57:00,
2013-01-27 15:02:00,38.3,35.3,29.95,SSW,195,4.0,5.0,89,0.04,,FEW,0.13,VWS V14.01,2013-01-27 23:02:00,
2013-01-27 15:07:00,38.3,35.3,29.95,SSW,195,0.0,5.0,89,0.04,,FEW,0.13,VWS V14.01,2013-01-27 23:07:00,
2013-01-27 15:12:00,38.3,35.6,29.95,SW,218,0.0,5.0,90,0.04,,FEW,0.13,VWS V14.01,2013-01-27 23:12:00,
2013-01-27 15:17:00,38.3,35.6,29.95,ESE,103,2.0,5.0,90,0.04,,FEW,0.13,VWS V14.01,2013-01-27 23:17:00,
2013-01-27 15:22:00,38.3,35.6,29.95,SSW,212,1.0,5.0,90,0.04,,FEW,0.13,VWS V14.01,2013-01-27 23:22:00,
2013-01-27 15:27:00,38.3,35.9,29.95,SSW,211,0.0,5.0,91,0.05,,FEW,0.14,VWS V14.01,2013-01-27 23:27:00,
2013-01-27 15:32:00,38.3,35.9,29.95,SSW,195,0.0,1.0,91,0.03,,FEW,0.14,VWS V14.01,2013-01-27 23:32:00,
2013-01-27 15:37:00,38.3,35.9,29.95,SSW,195,0.0,1.0,91,0.03,,FEW,0.14,VWS V14.01,2013-01-27 23:37:00,
2013-01-27 15:42:00,38.3,35.9,29.95,South,172,0.0,1.0,91,0.04,,FEW,0.15,VWS V14.01,2013-01-27 23:42:00,
2013-01-27 15:47:00,38.3,35.9,29.94,South,172,0.0,2.0,91,0.04,,FEW,0.15,VWS V14.01,2013-01-27 23:47:00,
2013-01-27 15:52:00,38.2,36.1,29.94,South,172,0.0,2.0,92,0.04,,FEW,0.15,VWS V14.01,2013-01-27 23:52:00,
2013-01-27 15:57:00,38.2,36.1,29.94,South,185,0.0,2.0,92,0.04,,FEW,0.15,VWS V14.01,2013-01-27 23:57:00,
2013-01-27 16:02:00,38.2,35.8,29.94,South,178,1.0,3.0,91,0.02,,FEW,0.15,VWS V14.01,2013-01-28 00:02:00,
2013-01-27 16:07:00,38.2,35.8,29.94,SSW,204,0.0,3.0,91,0.03,,FEW,0.16,VWS V14.01,2013-01-28 00:07:00,
2013-01-27 16:12:00,38.2,35.8,29.94,SSW,204,0.0,3.0,91,0.03,,FEW,0.16,VWS V14.01,2013-01-28 00:12:00,
2013-01-27 16:17:00,38.2,36.1,29.94,SSW,204,0.0,3.0,92,0.03,,FEW,0.16,VWS V14.01,2013-01-28 00:17:00,
2013-01-27 16:22:00,38.2,36.1,29.94,SSW,204,0.0,3.0,92,0.03,,FEW,0.16,VWS V14.01,2013-01-28 00:22:00,
2013-01-27 16:27:00,38.2,36.1,29.94,ESE,117,0.0,3.0,92,0.04,,FEW,0.17,VWS V14.01,2013-01-28 00:27:00,
2013-01-27 16:32:00,38.0,35.9,29.94,SSW,199,0.0,1.0,92,0.03,,FEW,0.17,VWS V14.01,2013-01-28 00:32:00,
2013-01-27 16:37:00,38.0,35.9,29.94,SSW,199,0.0,1.0,92,0.03,,FEW,0.17,VWS V14.01,2013-01-28 00:37:00,
2013-01-27 16:42:00,38.0,35.9,29.94,SSW,197,0.0,2.0,92,0.03,,FEW,0.17,VWS V14.01,2013-01-28 00:42:00,
2013-01-27 16:47:00,37.9,35.8,29.94,South,180,1.0,3.0,92,0.03,,FEW,0.17,VWS V14.01,2013-01-28 00:47:00,
2013-01-27 16:52:00,37.9,35.8,29.94,SSW,194,1.0,3.0,92,0.03,,FEW,0.17,VWS V14.01,2013-01-28 00:52:00,
2013-01-27 16:57:00,37.9,35.8,29.94,SSW,194,0.0,3.0,92,0.04,,FEW,0.18,VWS V14.01,2013-01-28 00:57:00,
2013-01-27 17:02:00,37.9,35.8,29.94,South,188,0.0,3.0,92,0.03,,FEW,0.18,VWS V14.01,2013-01-28 01:02:00,
2013-01-27 17:07:00,37.9,35.8,29.94,SSW,197,0.0,3.0,92,0.03,,FEW,0.18,VWS V14.01,2013-01-28 01:07:00,
2013-01-27 17:12:00,37.8,35.7,29.94,SSW,197,0.0,3.0,92,0.03,,FEW,0.18,VWS V14.01,2013-01-28 01:12:00,
2013-01-27 17:17:00,37.8,35.7,29.94,SSW,197,0.0,3.0,92,0.04,,FEW,0.19,VWS V14.01,2013-01-28 01:17:00,
2013-01-27 17:22:00,37.8,35.7,29.94,SSW,197,0.0,3.0,92,0.04,,FEW,0.19,VWS V14.01,2013-01-28 01:22:00,
2013-01-27 17:27:00,37.8,35.7,29.94,SSW,197,0.0,3.0,92,0.04,,FEW,0.19,VWS V14.01,2013-01-28 01:27:00,
2013-01-27 17:32:00,37.8,35.7,29.94,SSW,197,0.0,0.0,92,0.02,,FEW,0.19,VWS V14.01,2013-01-28 01:32:00,
2013-01-27 17:37:00,37.8,35.7,29.94,SSW,196,0.0,2.0,92,0.02,,FEW,0.19,VWS V14.01,2013-01-28 01:37:00,
2013-01-27 17:42:00,37.6,35.5,29.94,SSW,196,0.0,2.0,92,0.02,,FEW,0.19,VWS V14.01,2013-01-28 01:42:00,
2013-01-27 17:47:00,37.6,35.8,29.94,SSW,196,0.0,2.0,93,0.02,,FEW,0.19,VWS V14.01,2013-01-28 01:47:00,
2013-01-27 17:52:00,37.6,35.8,29.94,SSW,196,0.0,2.0,93,0.02,,FEW,0.19,VWS V14.01,2013-01-28 01:52:00,
2013-01-27 17:57:00,37.6,35.8,29.94,SSW,196,0.0,2.0,93,0.02,,FEW,0.19,VWS V14.01,2013-01-28 01:57:00,
2013-01-27 18:02:00,37.6,35.8,29.94,SSW,196,0.0,0.0,93,0.01,,FEW,0.19,VWS V14.01,2013-01-28 02:02:00,
2013-01-27 18:07:00,37.6,35.8,29.94,SSW,196,0.0,0.0,93,0.01,,FEW,0.19,VWS V14.01,2013-01-28 02:07:00,
2013-01-27 18:12:00,37.6,35.8,29.94,SSW,196,0.0,0.0,93,0.01,,FEW,0.19,VWS V14.01,2013-01-28 02:12:00,
2013-01-27 18:18:00,37.6,35.8,29.93,SSW,196,0.0,0.0,93,0.01,,FEW,0.19,VWS V14.01,2013-01-28 02:18:00,
2013-01-27 18:23:00,37.6,35.8,29.93,SSW,196,0.0,0.0,93,0.01,,FEW,0.19,VWS V14.01,2013-01-28 02:23:00,
2013-01-27 18:28:00,37.6,35.8,29.93,SSW,196,0.0,0.0,93,0.01,,FEW,0.19,VWS V14.01,2013-01-28 02:28:00,
2013-01-27 18:33:00,37.6,35.8,29.93,SSW,196,0.0,0.0,93,0.01,,FEW,0.20,VWS V14.01,2013-01-28 02:33:00,
2013-01-27 18:38:00,37.5,35.7,29.93,SSW,196,0.0,0.0,93,0.01,,FEW,0.20,VWS V14.01,2013-01-28 02:38:00,
2013-01-27 18:43:00,37.5,35.7,29.93,SSW,196,0.0,1.0,93,0.01,,FEW,0.20,VWS V14.01,2013-01-28 02:43:00,
2013-01-27 18:48:00,37.3,35.5,29.93,SSW,196,0.0,1.0,93,0.01,,FEW,0.20,VWS V14.01,2013-01-28 02:48:00,
2013-01-27 18:53:00,37.3,35.5,29.93,SSW,196,0.0,1.0,93,0.01,,FEW,0.20,VWS V14.01,2013-01-28 02:53:00,
2013-01-27 18:58:00,37.3,35.5,29.93,SSW,196,0.0,1.0,93,0.01,,FEW,0.20,VWS V14.01,2013-01-28 02:58:00,
2013-01-27 19:03:00,37.3,35.5,29.93,SSW,196,0.0,0.0,93,0.01,,FEW,0.20,VWS V14.01,2013-01-28 03:03:00,
2013-01-27 19:08:00,37.3,35.7,29.93,SSW,196,0.0,0.0,94,0.01,,FEW,0.20,VWS V14.01,2013-01-28 03:08:00,
2013-01-27 19:13:00,37.2,35.6,29.93,SSW,196,0.0,0.0,94,0.01,,FEW,0.20,VWS V14.01,2013-01-28 03:13:00,
2013-01-27 19:18:00,37.2,35.6,29.94,SSW,196,0.0,0.0,94,0.01,,FEW,0.20,VWS V14.01,2013-01-28 03:18:00,
2013-01-27 19:23:00,37.2,35.6,29.94,SSW,196,0.0,0.0,94,0.01,,FEW,0.20,VWS V14.01,2013-01-28 03:23:00,
2013-01-27 19:28:00,37.2,35.6,29.94,SSW,196,0.0,0.0,94,0.01,,FEW,0.20,VWS V14.01,2013-01-28 03:28:00,
2013-01-27 19:33:00,37.0,35.4,29.94,SSW,196,0.0,0.0,94,0.00,,FEW,0.20,VWS V14.01,2013-01-28 03:33:00,
2013-01-27 19:38:00,37.0,35.4,29.94,SSW,196,0.0,0.0,94,0.00,,FEW,0.20,VWS V14.01,2013-01-28 03:38:00,
2013-01-27 19:43:00,37.0,35.4,29.94,SSW,196,0.0,0.0,94,0.00,,FEW,0.20,VWS V14.01,2013-01-28 03:43:00,
2013-01-27 19:48:00,37.0,35.4,29.94,SSW,196,0.0,0.0,94,0.00,,FEW,0.20,VWS V14.01,2013-01-28 03:48:00,
2013-01-27 19:53:00,37.0,35.4,29.94,SSW,196,0.0,0.0,94,0.00,,FEW,0.20,VWS V14.01,2013-01-28 03:53:00,
2013-01-27 19:58:00,37.0,35.4,29.94,SSW,196,0.0,0.0,94,0.00,,FEW,0.20,VWS V14.01,2013-01-28 03:58:00,
2013-01-27 20:03:00,37.0,35.4,29.94,SSW,196,0.0,0.0,94,0.00,,FEW,0.20,VWS V14.01,2013-01-28 04:03:00,
2013-01-27 20:08:00,37.0,35.4,29.94,SSW,196,0.0,0.0,94,0.00,,FEW,0.20,VWS V14.01,2013-01-28 04:08:00,
2013-01-27 20:13:00,37.0,35.4,29.94,SSW,196,0.0,0.0,94,0.00,,FEW,0.20,VWS V14.01,2013-01-28 04:13:00,
2013-01-27 20:18:00,37.0,35.4,29.94,SSW,196,0.0,0.0,94,0.00,,FEW,0.20,VWS V14.01,2013-01-28 04:18:00,
2013-01-27 20:23:00,37.2,35.6,29.94,SSW,196,0.0,0.0,94,0.00,,FEW,0.20,VWS V14.01,2013-01-28 04:23:00,
2013-01-27 20:28:00,37.2,35.6,29.94,SSW,196,0.0,0.0,94,0.00,,FEW,0.20,VWS V14.01,2013-01-28 04:28:00,
2013-01-27 20:33:00,37.2,35.6,29.94,SSW,196,0.0,0.0,94,0.00,,FEW,0.20,VWS V14.01,2013-01-28 04:33:00,
2013-01-27 20:38:00,37.2,35.6,29.94,SSW,196,0.0,0.0,94,0.00,,FEW,0.20,VWS V14.01,2013-01-28 04:38:00,
2013-01-27 20:43:00,37.2,35.6,29.94,SSW,196,0.0,1.0,94,0.01,,FEW,0.21,VWS V14.01,2013-01-28 04:43:00,
2013-01-27 20:48:00,37.2,35.6,29.94,SSW,196,0.0,1.0,94,0.01,,FEW,0.21,VWS V14.01,2013-01-28 04:48:00,
2013-01-27 20:53:00,37.2,35.6,29.94,SSW,196,0.0,1.0,94,0.01,,FEW,0.21,VWS V14.01,2013-01-28 04:53:00,
2013-01-27 20:58:00,37.2,35.6,29.94,SSW,196,0.0,1.0,94,0.01,,FEW,0.21,VWS V14.01,2013-01-28 04:58:00,
2013-01-27 21:00:00,37.2,35.6,29.94,SSW,196,0.0,0.0,94,0.01,,FEW,0.21,VWS V14.01,2013-01-28 05:00:00,
2013-01-27 21:02:00,37.2,35.9,29.94,SSW,196,0.0,0.0,95,0.01,,FEW,0.21,VWS V14.01,2013-01-28 05:02:00,
2013-01-27 21:03:00,37.2,35.9,29.94,SSW,196,0.0,0.0,95,0.01,,FEW,0.21,VWS V14.01,2013-01-28 05:03:00,
2013-01-27 21:08:00,37.2,35.9,29.94,SSW,196,0.0,0.0,95,0.01,,FEW,0.21,VWS V14.01,2013-01-28 05:08:00,
2013-01-27 21:13:00,37.0,35.7,29.94,SSW,196,0.0,0.0,95,0.01,,FEW,0.21,VWS V14.01,2013-01-28 05:13:00,
2013-01-27 21:18:00,37.0,35.7,29.94,SSW,196,0.0,0.0,95,0.01,,FEW,0.21,VWS V14.01,2013-01-28 05:18:00,
2013-01-27 21:23:00,37.0,35.7,29.94,SSW,196,0.0,0.0,95,0.01,,FEW,0.21,VWS V14.01,2013-01-28 05:23:00,
2013-01-27 21:28:00,37.0,35.7,29.94,SSW,196,0.0,1.0,95,0.01,,FEW,0.21,VWS V14.01,2013-01-28 05:28:00,
2013-01-27 21:33:00,37.0,35.7,29.94,SSW,196,0.0,0.0,95,0.01,,FEW,0.21,VWS V14.01,2013-01-28 05:33:00,
2013-01-27 21:38:00,37.0,35.7,29.94,SSW,196,0.0,0.0,95,0.01,,FEW,0.21,VWS V14.01,2013-01-28 05:38:00,
2013-01-27 21:43:00,37.0,35.7,29.94,SSW,196,0.0,0.0,95,0.01,,FEW,0.21,VWS V14.01,2013-01-28 05:43:00,
2013-01-27 21:49:00,37.0,35.7,29.94,SSW,196,0.0,0.0,95,0.01,,FEW,0.21,VWS V14.01,2013-01-28 05:49:00,
2013-01-27 21:54:00,36.9,35.6,29.94,SSW,196,0.0,0.0,95,0.01,,FEW,0.21,VWS V14.01,2013-01-28 05:54:00,
2013-01-27 21:59:00,36.9,35.6,29.94,SSW,196,0.0,0.0,95,0.01,,FEW,0.21,VWS V14.01,2013-01-28 05:59:00,
2013-01-27 22:04:00,36.9,35.6,29.94,SSW,196,0.0,0.0,95,0.00,,FEW,0.21,VWS V14.01,2013-01-28 06:04:00,
2013-01-27 22:09:00,36.9,35.6,29.94,SSW,196,0.0,0.0,95,0.01,,FEW,0.22,VWS V14.01,2013-01-28 06:09:00,
2013-01-27 22:14:00,36.9,35.6,29.94,SSW,196,0.0,0.0,95,0.01,,FEW,0.22,VWS V14.01,2013-01-28 06:14:00,
2013-01-27 22:19:00,36.9,35.6,29.94,SSW,196,0.0,0.0,95,0.01,,FEW,0.22,VWS V14.01,2013-01-28 06:19:00,
2013-01-27 22:24:00,36.9,35.6,29.94,SSW,196,0.0,0.0,95,0.01,,FEW,0.22,VWS V14.01,2013-01-28 06:24:00,
2013-01-27 22:29:00,36.9,35.6,29.94,SSW,196,0.0,0.0,95,0.01,,FEW,0.22,VWS V14.01,2013-01-28 06:29:00,
2013-01-27 22:34:00,36.9,35.6,29.93,SSW,196,0.0,0.0,95,0.01,,FEW,0.22,VWS V14.01,2013-01-28 06:34:00,
2013-01-27 22:39:00,36.9,35.6,29.93,SSW,196,0.0,0.0,95,0.01,,FEW,0.22,VWS V14.01,2013-01-28 06:39:00,
2013-01-27 22:44:00,36.9,35.6,29.93,SSW,196,0.0,0.0,95,0.01,,FEW,0.22,VWS V14.01,2013-01-28 06:44:00,
2013-01-27 22:49:00,36.9,35.6,29.93,SSW,196,0.0,0.0,95,0.01,,FEW,0.22,VWS V14.01,2013-01-28 06:49:00,
2013-01-27 22:54:00,37.0,35.7,29.93,SSW,196,0.0,0.0,95,0.01,,FEW,0.22,VWS V14.01,2013-01-28 06:54:00,
2013-01-27 22:59:00,37.0,35.7,29.93,SSW,196,0.0,0.0,95,0.01,,FEW,0.22,VWS V14.01,2013-01-28 06:59:00,
2013-01-27 23:04:00,37.0,35.7,29.94,SSW,196,0.0,0.0,95,0.01,,FEW,0.22,VWS V14.01,2013-01-28 07:04:00,
2013-01-27 23:09:00,37.0,35.7,29.94,SSW,196,0.0,0.0,95,0.01,,FEW,0.22,VWS V14.01,2013-01-28 07:09:00,
2013-01-27 23:14:00,37.0,35.7,29.94,SSW,196,0.0,0.0,95,0.01,,FEW,0.22,VWS V14.01,2013-01-28 07:14:00,
2013-01-27 23:19:00,37.0,35.7,29.94,SSW,196,0.0,0.0,95,0.01,,FEW,0.22,VWS V14.01,2013-01-28 07:19:00,
2013-01-27 23:24:00,37.0,35.7,29.94,SSW,196,0.0,0.0,95,0.01,,FEW,0.22,VWS V14.01,2013-01-28 07:24:00,
2013-01-27 23:29:00,37.2,35.9,29.94,SSW,196,0.0,0.0,95,0.01,,FEW,0.22,VWS V14.01,2013-01-28 07:29:00,
2013-01-27 23:34:00,37.2,35.9,29.94,SSW,196,0.0,1.0,95,0.00,,FEW,0.22,VWS V14.01,2013-01-28 07:34:00,
2013-01-27 23:39:00,37.2,35.9,29.94,SSW,196,0.0,1.0,95,0.00,,FEW,0.22,VWS V14.01,2013-01-28 07:39:00,
2013-01-27 23:44:00,37.2,35.9,29.93,SSW,196,0.0,1.0,95,0.00,,FEW,0.22,VWS V14.01,2013-01-28 07:44:00,
2013-01-27 23:49:00,37.2,35.9,29.93,SSW,196,0.0,1.0,95,0.00,,FEW,0.22,VWS V14.01,2013-01-28 07:49:00,
2013-01-27 23:54:00,37.2,35.9,29.93,SSW,196,0.0,1.0,95,0.00,,FEW,0.22,VWS V14.01,2013-01-28 07:54:00,
2013-01-27 23:59:00,37.2,35.9,29.94,SSW,196,0.0,1.0,95,0.00,,FEW,0.22,VWS V14.01,2013-01-28 07:59:00,